Weather History for Wilmington, OH

Change the Weather History Date:

Wednesday, January 25, 2012

  Actual Average (KDAY) Record (KDAY)
Temperature  
Mean Temperature 30 °F 28 °F  
Max Temperature 34 °F 35 °F 71 °F (1950)
Min Temperature 26 °F 20 °F -12 °F (1897)
Degree Days  
Heating Degree Days 35 37  
Month to date heating degree days 942  
Since 1 July heating degree days 3101  
Cooling Degree Days 0 0  
Month to date cooling degree days 0  
Year to date cooling degree days 0  
Moisture  
Dew Point 27 °F    
Average Humidity 88    
Maximum Humidity 96    
Minimum Humidity 81    
Precipitation  
Precipitation 0.02 in 0.08 in 0.95 in (1978)
Month to date precipitation 2.23  
Year to date precipitation 2.23  
Snow  
Snow 0.00 in 0.30 in 4.90 in (1915)
Month to date snowfall 6.4  
Since 1 July snowfall 11.9  
Snow Depth -    
Sea Level Pressure  
Sea Level Pressure 30.33 in    
Wind  
Wind Speed 4 mph (East)    
Max Wind Speed 13 mph    
Max Gust Speed -    
Visibility 6 miles    
Events Rain    
T = Trace of Precipitation, MM = Missing Value Source: NWS Daily Summary

Daily Weather History Graph

Daily Weather History Graph

Search for Another Location

Airport:

Trip Planner

Search our weather history database for the weather conditions in past years. The results will help you decide how hot, cold, wet, or windy it might be!

Date:

Astronomy

Jan. 25, 2012 Rise Set
Actual Time 7:48 AM EST 5:46 PM EST
Civil Twilight 7:19 AM EST 6:15 PM EST
Nautical Twilight 6:47 AM EST 6:48 PM EST
Astronomical Twilight 6:15 AM EST 7:20 PM EST
Moon 8:48 AM EST (1/25) 8:37 PM EST (1/25)
Length of Visible Light 10h 55m
Length of Day
9h 58m
Waxing Crescent, 6% of the Moon is Illuminated
Jan 25
Waxing Crescent
Jan 30
First Quarter
Feb 7
Full
Feb 14
Last Quarter
Feb 21
New

Hourly Weather History & Observations

Time (EST) Temp. Windchill Dew Point Humidity Pressure Visibility Wind Dir Wind Speed Gust Speed Precip Events Conditions
12:54 AM 30.0 °F - 25.0 °F 82% 30.42 in 9.0 mi Calm Calm - N/A   Overcast
1:47 AM 28.4 °F - 24.8 °F 86% 30.32 in 9.0 mi Calm Calm - N/A   Partly Cloudy
1:54 AM 28.0 °F - 24.1 °F 85% 30.41 in 9.0 mi Calm Calm - N/A   Scattered Clouds
2:54 AM 26.1 °F - 24.1 °F 92% 30.42 in 7.0 mi Calm Calm - N/A   Clear
3:54 AM 26.1 °F 21.9 °F 24.1 °F 92% 30.41 in 6.0 mi ENE 3.5 mph - N/A   Clear
4:54 AM 26.1 °F 21.9 °F 24.1 °F 92% 30.39 in 7.0 mi East 3.5 mph - N/A   Clear
5:54 AM 26.1 °F 21.9 °F 23.0 °F 88% 30.40 in 6.0 mi East 3.5 mph - N/A   Clear
6:54 AM 27.0 °F 20.5 °F 24.1 °F 89% 30.39 in 6.0 mi East 5.8 mph - N/A   Clear
7:54 AM 28.0 °F 20.0 °F 25.0 °F 88% 30.42 in 6.0 mi SE 8.1 mph - N/A   Mostly Cloudy
8:54 AM 28.9 °F 22.8 °F 26.1 °F 89% 30.42 in 6.0 mi ESE 5.8 mph - N/A   Overcast
9:54 AM 28.9 °F 22.8 °F 26.1 °F 89% 30.40 in 5.0 mi ESE 5.8 mph - N/A   Overcast
10:54 AM 30.0 °F 24.1 °F 27.0 °F 88% 30.39 in 5.0 mi East 5.8 mph - N/A   Overcast
11:54 AM 32.0 °F 26.4 °F 27.0 °F 82% 30.35 in 7.0 mi ESE 5.8 mph - N/A   Overcast
12:30 PM 33.8 °F 29.6 °F 28.4 °F 81% 30.24 in 8.0 mi East 4.6 mph - N/A   Overcast
12:54 PM 32.0 °F 26.4 °F 28.0 °F 85% 30.31 in 7.0 mi ENE 5.8 mph - N/A   Overcast
1:54 PM 34.0 °F 31.0 °F 28.9 °F 82% 30.29 in 7.0 mi NNE 3.5 mph - N/A   Overcast
2:39 PM 33.8 °F 28.6 °F 28.4 °F 81% 30.21 in 6.0 mi ENE 5.8 mph - N/A   Overcast
2:54 PM 33.1 °F - 28.9 °F 85% 30.31 in 7.0 mi Calm Calm - N/A   Overcast
3:54 PM 33.1 °F 26.9 °F 28.9 °F 85% 30.30 in 7.0 mi NE 6.9 mph - N/A   Mostly Cloudy
4:54 PM 32.0 °F 24.2 °F 28.9 °F 88% 30.28 in 5.0 mi NNE 9.2 mph - N/A   Overcast
5:54 PM 32.0 °F 23.6 °F 28.9 °F 88% 30.28 in 5.0 mi NE 10.4 mph - 0.00 in   Overcast
6:05 PM 30.2 °F 20.2 °F 28.4 °F 93% 30.17 in 4.0 mi NE 12.7 mph - 0.01 in Rain Light Freezing Rain
6:54 PM 30.9 °F 24.3 °F 28.9 °F 92% 30.28 in 5.0 mi East 6.9 mph - 0.02 in   Overcast
7:54 PM 32.0 °F 28.7 °F 28.9 °F 88% 30.27 in 5.0 mi East 3.5 mph - 0.00 in   Overcast
8:54 PM 32.0 °F 25.6 °F 30.0 °F 92% 30.25 in 5.0 mi NE 6.9 mph - N/A   Overcast
11:54 PM 32.0 °F 24.8 °F 30.9 °F 96% 30.18 in 3.0 mi East 8.1 mph - 0.00 in   Overcast